Station Name: LANESBORO (Doire Dharog)
Station Height: 49 M 
Latitude:53.669  ,Longitude: -7.933


date: -   09 to 09 utc
rain: -   Precipitation Amount (mm)
maxt: -   Maximum Temperature (C)
mint: -   Minimum Temperature (C)
gmin: -   09utc Grass Minimum Temperature (C)
soil: -   10cm Soil Temperature (C)
ind:  -	  Indicator

date,ind,rain,ind,maxt,ind,mint,gmin,soil
01-dec-1964,0,0.700, , , , , , 
02-dec-1964,0,0.200, , , , , , 
03-dec-1964,0,0.500, , , , , , 
04-dec-1964,0,3.500, , , , , , 
05-dec-1964,0,4.100, , , , , , 
06-dec-1964,0,5.100, , , , , , 
07-dec-1964,0,6.900, , , , , , 
08-dec-1964,0,13.000, , , , , , 
09-dec-1964,0,0.200, , , , , , 
10-dec-1964,4,0.000, , , , , , 
11-dec-1964,0,14.600, , , , , , 
12-dec-1964,0,15.000, , , , , , 
13-dec-1964,0,0.800, , , , , , 
14-dec-1964,0,0.200, , , , , , 
15-dec-1964,0,8.700, , , , , , 
16-dec-1964,0,0.200, , , , , , 
17-dec-1964,4,0.000, , , , , , 
18-dec-1964,0,1.000, , , , , , 
19-dec-1964,0,0.900, , , , , , 
20-dec-1964,4,0.000, , , , , , 
21-dec-1964,4,0.000, , , , , , 
22-dec-1964,0,0.700, , , , , , 
23-dec-1964,0,0.000, , , , , , 
24-dec-1964,4,0.000, , , , , , 
25-dec-1964,0,2.900, , , , , , 
26-dec-1964,0,3.700, , , , , , 
27-dec-1964,4,0.000, , , , , , 
28-dec-1964,0,2.200, , , , , , 
29-dec-1964,0,4.300, , , , , , 
30-dec-1964,0,3.900, , , , , , 
31-dec-1964,0,1.500, , , , , , 
01-jan-1965,4,0.000, , , , , , 
02-jan-1965,0,4.800, , , , , , 
03-jan-1965,0,0.000, , , , , , 
04-jan-1965,0,0.100, , , , , , 
05-jan-1965,0,0.500, , , , , , 
06-jan-1965,0,3.000, , , , , , 
07-jan-1965,0,4.500, , , , , , 
08-jan-1965,0,3.400, , , , , , 
09-jan-1965,0,13.500, , , , , , 
10-jan-1965,0,2.600, , , , , , 
11-jan-1965,0,0.800, , , , , , 
12-jan-1965,0,14.200, , , , , , 
13-jan-1965,0,2.800, , , , , , 
14-jan-1965,0,6.800, , , , , , 
15-jan-1965,0,2.300, , , , , , 
16-jan-1965,0,5.300, , , , , , 
17-jan-1965,0,14.100, , , , , , 
18-jan-1965,0,0.600, , , , , , 
19-jan-1965,0,14.100, , , , , , 
20-jan-1965,0,0.300, , , , , , 
21-jan-1965,0,3.500, , , , , , 
22-jan-1965,0,1.300, , , , , , 
23-jan-1965,0,5.900, , , , , , 
24-jan-1965,0,0.400, , , , , , 
25-jan-1965,4,0.000, , , , , , 
26-jan-1965,4,0.000, , , , , , 
27-jan-1965,0,0.600, , , , , , 
28-jan-1965,4,0.000, , , , , , 
29-jan-1965,0,0.000, , , , , , 
30-jan-1965,4,0.000, , , , , , 
31-jan-1965,4,0.000, , , , , , 
01-feb-1965,4,0.000, , , , , , 
02-feb-1965,4,0.000, , , , , , 
03-feb-1965,4,0.000, , , , , , 
04-feb-1965,4,0.000, , , , , , 
05-feb-1965,0,0.100, , , , , , 
06-feb-1965,0,0.000, , , , , , 
07-feb-1965,4,0.000, , , , , , 
08-feb-1965,4,0.000, , , , , , 
09-feb-1965,0,0.100, , , , , , 
10-feb-1965,0,0.000, , , , , , 
11-feb-1965,0,0.200, , , , , , 
12-feb-1965,0,1.800, , , , , , 
13-feb-1965,0,0.100, , , , , , 
14-feb-1965,4,0.000, , , , , , 
15-feb-1965,4,0.000, , , , , , 
16-feb-1965,4,0.000, , , , , , 
17-feb-1965,4,0.000, , , , , , 
18-feb-1965,4,0.000, , , , , , 
19-feb-1965,4,0.000, , , , , , 
20-feb-1965,0,0.200, , , , , , 
21-feb-1965,0,0.000, , , , , , 
22-feb-1965,0,0.000, , , , , , 
23-feb-1965,0,0.700, , , , , , 
24-feb-1965,4,0.000, , , , , , 
25-feb-1965,0,0.000, , , , , , 
26-feb-1965,4,0.000, , , , , , 
27-feb-1965,0,0.300, , , , , , 
28-feb-1965,0,1.800, , , , , , 
01-mar-1965,0,0.500, , , , , , 
02-mar-1965,0,4.000, , , , , , 
03-mar-1965,0,1.800, , , , , , 
04-mar-1965,4,0.000, , , , , , 
05-mar-1965,0,0.000, , , , , , 
06-mar-1965,0,0.100, , , , , , 
07-mar-1965,4,0.000, , , , , , 
08-mar-1965,0,0.000, , , , , , 
09-mar-1965,0,0.000, , , , , , 
10-mar-1965,0,0.000, , , , , , 
11-mar-1965,0,3.200, , , , , , 
12-mar-1965,0,9.700, , , , , , 
13-mar-1965,0,6.100, , , , , , 
14-mar-1965,0,1.800, , , , , , 
15-mar-1965,0,8.700, , , , , , 
16-mar-1965,0,6.400, , , , , , 
17-mar-1965,0,0.800, , , , , , 
18-mar-1965,0,0.200, , , , , , 
19-mar-1965,0,5.300, , , , , , 
20-mar-1965,0,8.800, , , , , , 
21-mar-1965,0,3.500, , , , , , 
22-mar-1965,0,6.800, , , , , , 
23-mar-1965,0,5.200, , , , , , 
24-mar-1965,0,1.300, , , , , , 
25-mar-1965,0,6.900, , , , , , 
26-mar-1965,0,2.000, , , , , , 
27-mar-1965,0,0.000, , , , , , 
28-mar-1965,0,0.000, , , , , , 
29-mar-1965,0,0.000, , , , , , 
30-mar-1965,0,0.000, , , , , , 
31-mar-1965,0,0.000, , , , , , 
01-apr-1965,0,0.000, , , , , , 
02-apr-1965,0,0.000, , , , , , 
03-apr-1965,0,0.900, , , , , , 
04-apr-1965,4,0.000, , , , , , 
05-apr-1965,4,0.000, , , , , , 
06-apr-1965,0,2.100, , , , , , 
07-apr-1965,0,0.000, , , , , , 
08-apr-1965,0,3.700, , , , , , 
09-apr-1965,0,12.100, , , , , , 
10-apr-1965,0,2.100, , , , , , 
11-apr-1965,0,5.900, , , , , , 
12-apr-1965,0,1.100, , , , , , 
13-apr-1965,0,7.200, , , , , , 
14-apr-1965,0,4.100, , , , , , 
15-apr-1965,0,1.800, , , , , , 
16-apr-1965,0,1.000, , , , , , 
17-apr-1965,0,2.700, , , , , , 
18-apr-1965,0,1.800, , , , , , 
19-apr-1965,0,0.300, , , , , , 
20-apr-1965,4,0.000, , , , , , 
21-apr-1965,0,1.500, , , , , , 
22-apr-1965,0,1.500, , , , , , 
23-apr-1965,0,1.800, , , , , , 
24-apr-1965,0,9.700, , , , , , 
25-apr-1965,4,0.000, , , , , , 
26-apr-1965,0,3.700, , , , , , 
27-apr-1965,0,1.900, , , , , , 
28-apr-1965,4,0.000, , , , , , 
29-apr-1965,0,0.300, , , , , , 
30-apr-1965,0,4.800, , , , , , 
01-may-1965,0,1.200, , , , , , 
02-may-1965,0,4.700, , , , , , 
03-may-1965,0,3.000, , , , , , 
04-may-1965,0,0.700, , , , , , 
05-may-1965,0,4.900, , , , , , 
06-may-1965,0,8.500, , , , , , 
07-may-1965,0,2.900, , , , , , 
08-may-1965,0,6.900, , , , , , 
09-may-1965,4,0.000, , , , , , 
10-may-1965,4,0.000, , , , , , 
11-may-1965,0,0.000, , , , , , 
12-may-1965,0,0.000, , , , , , 
13-may-1965,0,0.000, , , , , , 
14-may-1965,0,0.100, , , , , , 
15-may-1965,0,6.300, , , , , , 
16-may-1965,0,0.100, , , , , , 
17-may-1965,0,5.200, , , , , , 
18-may-1965,0,0.000, , , , , , 
19-may-1965,0,0.000, , , , , , 
20-may-1965,0,2.400, , , , , , 
21-may-1965,0,11.200, , , , , , 
22-may-1965,0,4.000, , , , , , 
23-may-1965,0,11.300, , , , , , 
24-may-1965,0,1.200, , , , , , 
25-may-1965,0,0.400, , , , , , 
26-may-1965,0,1.000, , , , , , 
27-may-1965,0,0.000, , , , , , 
28-may-1965,0,0.600, , , , , , 
29-may-1965,0,0.000, , , , , , 
30-may-1965,4,0.000, , , , , , 
31-may-1965,0,0.000, , , , , , 
01-jun-1965,0,0.000,0,16.1,0,4.8, , 
02-jun-1965,0,0.000,0,18.1,0,5.2, , 
03-jun-1965,0,0.300,0,17.8,0,8.1, , 
04-jun-1965,0,5.900,0,14.4,0,9.5, , 
05-jun-1965,0,3.400,0,16.2,0,8.2, , 
06-jun-1965,0,0.200,0,17.3,0,7.7, , 
07-jun-1965,0,10.600,0,17.0,0,9.1, , 
08-jun-1965,0,0.000,0,18.1,0,7.5, , 
09-jun-1965,0,0.000,0,20.5,0,7.6, , 
10-jun-1965,0,8.400,0,20.0,0,9.2, , 
11-jun-1965,0,5.400,0,18.9,0,12.5, , 
12-jun-1965,0,1.900,0,18.5,0,11.3, , 
13-jun-1965,0,2.600,0,19.5,0,8.9, , 
14-jun-1965,0,18.400,0,18.2,0,11.7, , 
15-jun-1965,0,2.100,0,19.1,0,12.0, , 
16-jun-1965,0,2.900,0,16.6,0,8.9, , 
17-jun-1965,0,6.100,0,16.6,0,9.2, , 
18-jun-1965,0,8.100,0,16.7,0,12.2, , 
19-jun-1965,4,0.000,0,17.7,0,10.5, , 
20-jun-1965,0,1.800,0,18.7,0,11.3, , 
21-jun-1965,0,1.200,0,15.1,0,9.9, , 
22-jun-1965,0,4.500,0,17.3,0,6.7, , 
23-jun-1965,0,4.500,0,16.1,0,10.6, , 
24-jun-1965,0,7.900,0,15.7,0,9.9, , 
25-jun-1965,0,0.700,0,16.4,0,12.3, , 
26-jun-1965,0,0.900,0,14.7,0,9.6, , 
27-jun-1965,0,0.000,0,17.2,0,9.7, , 
28-jun-1965,0,0.200,0,18.1,0,8.8, , 
29-jun-1965,0,0.000,0,22.7,0,12.0, , 
30-jun-1965,0,0.000,0,19.8,0,11.0, , 
01-jul-1965,0,0.000,0,19.4,0,6.7,4.0, 
02-jul-1965,4,0.000,0,17.3,0,11.0,11.0, 
03-jul-1965,0,0.000,0,16.3,0,5.3,4.7, 
04-jul-1965,0,0.000,0,17.2,0,5.4,4.7, 
05-jul-1965,0,0.400,0,16.2,0,9.2,8.6, 
06-jul-1965,0,3.200,0,18.3,0,9.8,9.0, 
07-jul-1965,0,0.000,0,15.8,0,8.2,6.2, 
08-jul-1965,0,0.000,0,15.5,0,6.2,3.1, 
09-jul-1965,0,2.000,0,16.6,0,10.4,5.4, 
10-jul-1965,0,3.500,0,18.7,0,11.1,6.7, 
11-jul-1965,0,2.000,0,17.8,0,12.3,8.2, 
12-jul-1965,0,10.600,0,15.0,0,7.7,4.1, 
13-jul-1965,0,2.600,0,15.8,0,11.7,7.6, 
14-jul-1965,0,0.200,0,14.1,0,11.3,9.4, 
15-jul-1965,0,0.000,0,18.0,0,11.5,10.0, 
16-jul-1965,0,0.000,0,20.5,0,5.1,2.3, 
17-jul-1965,0,1.400,0,21.0,0,9.4,6.0, 
18-jul-1965,0,11.400,0,15.2,0,10.7,8.6, 
19-jul-1965,4,0.000,0,17.7,0,12.7,8.6, 
20-jul-1965,0,1.100,0,20.4,0,10.6,8.0, 
21-jul-1965,4,0.000,0,17.9,0,13.3,11.7, 
22-jul-1965,0,0.000,0,18.7,0,9.2,6.4, 
23-jul-1965,0,14.400,0,18.3,0,8.1,4.5, 
24-jul-1965,0,7.100,0,17.0,0,11.2,8.0, 
25-jul-1965,4,0.000,0,15.0,0,11.7,5.0, 
26-jul-1965,0,0.000,0,16.0,0,9.9,7.3, 
27-jul-1965,0,4.900,0,16.8,0,11.8,10.2, 
28-jul-1965,0,3.100,0,15.6,0,13.3,12.9, 
29-jul-1965,0,0.100,0,16.7,0,13.2,12.0, 
30-jul-1965,0,3.800,0,15.7,0,5.7,1.5, 
31-jul-1965,0,0.500,0,16.5,0,6.2,4.5, 
01-aug-1965,0,8.400,0,16.2,0,7.5,4.6, 
02-aug-1965,0,5.000,0,18.5,0,11.0,8.3, 
03-aug-1965,0,9.500,0,17.8,0,8.4,3.5, 
04-aug-1965,0,9.700,0,19.0,0,12.5,10.2, 
05-aug-1965,0,1.900,0,16.9,0,12.2,10.2, 
06-aug-1965,0,1.500,0,15.4,0,8.6,5.6, 
07-aug-1965,0,0.200,0,16.2,0,7.2,4.2, 
08-aug-1965,0,0.000,0,17.0,0,4.4,3.1, 
09-aug-1965,0,1.800,0,18.9,0,8.4,3.5, 
10-aug-1965,0,0.400,0,20.7,0,4.7,2.0, 
11-aug-1965,0,2.200,0,21.4,0,14.0,10.0, 
12-aug-1965,0,4.700,0,23.2,0,15.2,10.5, 
13-aug-1965,0,0.100,0,21.5,0,15.0,13.9, 
14-aug-1965,0,6.100,0,19.0,0,15.5,12.5, 
15-aug-1965,0,0.000,0,18.4,0,13.0,11.1, 
16-aug-1965,0,0.100,0,18.4,0,7.9,3.3, 
17-aug-1965,0,0.800,0,18.0,0,12.2,10.3, 
18-aug-1965,0,0.200,0,19.3,0,13.5,12.6, 
19-aug-1965,0,0.400,0,18.4,0,10.7,7.2, 
20-aug-1965,0,11.100,0,14.7,0,9.7,6.1, 
21-aug-1965,0,8.800,0,17.2,0,11.7,9.6, 
22-aug-1965,4,0.000,0,14.2,0,10.1,9.0, 
23-aug-1965,0,1.600,0,15.7,0,9.9,9.1, 
24-aug-1965,0,4.300,0,16.0,0,12.1,9.0, 
25-aug-1965,0,0.500,0,15.8,0,9.5,6.4, 
26-aug-1965,0,0.600,0,15.0,0,9.1,4.0, 
27-aug-1965,0,3.000,0,17.7,0,4.0,-0.3, 
28-aug-1965,0,2.000,0,17.2,0,10.9,7.5, 
29-aug-1965,0,1.100,0,16.6,0,10.3,7.8, 
30-aug-1965,0,2.400,0,15.7,0,8.7,6.1, 
31-aug-1965,0,0.000,0,15.5,0,7.9,5.8, 
01-sep-1965,4,0.000,0,14.8,0,3.0,2.8, 
02-sep-1965,0,0.200,0,16.6,0,9.0,9.5, 
03-sep-1965,4,0.000,0,14.9,0,10.7,9.5, 
04-sep-1965,0,2.100,0,13.4,0,6.2,3.5, 
05-sep-1965,0,0.000,0,14.8,0,10.1,8.9, 
06-sep-1965,4,0.000,0,14.1,0,7.9,6.6, 
07-sep-1965,0,0.000,0,16.0,0,3.4,-1.2, 
08-sep-1965,0,3.800,0,13.8,0,4.0,1.0, 
09-sep-1965,0,3.100,0,13.1,0,5.4,2.9, 
10-sep-1965,0,0.500,0,14.1,0,8.3,7.4, 
11-sep-1965,4,0.000,0,13.8,0,8.0, , 
12-sep-1965,0,0.500,0,12.7,0,9.0,7.6, 
13-sep-1965,0,1.500,0,14.8,0,5.7,2.2, 
14-sep-1965,0,1.300,0,16.5,0,8.2,7.2, 
15-sep-1965,0,0.600,0,17.8,0,12.7,12.2, 
16-sep-1965,0,2.300,0,16.7,0,9.5,4.3, 
17-sep-1965,0,18.100,0,12.0,0,7.8,5.2, 
18-sep-1965,0,1.200,0,14.9,0,7.8,7.0, 
19-sep-1965,0,0.000,0,16.3,0,6.0,0.6, 
20-sep-1965,4,0.000,0,17.3,0,11.1,9.4, 
21-sep-1965,0,2.600,0,18.7,0,9.9,8.2, 
22-sep-1965,0,2.600,0,15.7,0,11.9,11.9, 
23-sep-1965,0,6.600,0,11.7,0,10.4,8.5, 
24-sep-1965,0,10.100,0,11.0,0,3.1,0.2, 
25-sep-1965,0,0.500,0,12.3,0,4.5,3.6, 
26-sep-1965,0,0.100,0,13.5,0,8.5,5.6, 
27-sep-1965,0,1.200,0,13.5,0,4.0,-2.0, 
28-sep-1965,0,0.500,0,15.5,0,2.0,-2.0, 
29-sep-1965,4,0.000,0,13.0,0,9.5,4.0, 
30-sep-1965,4,0.000,0,15.0,0,10.0,7.5, 
01-oct-1965,0,0.900,0,15.2,0,7.0,4.0, 
02-oct-1965,0,0.600,0,13.0,0,9.0,8.0, 
03-oct-1965,0,2.600,0,15.4,0,9.5,9.0, 
04-oct-1965,0,0.200,0,17.2,0,11.0,8.0, 
05-oct-1965,0,0.100,0,16.8,0,9.1,5.7, 
06-oct-1965,0,3.600,0,16.0,0,10.3,8.6, 
07-oct-1965,0,0.200,0,15.1,0,10.0,10.3, 
08-oct-1965,0,0.000,0,15.2,0,10.8,9.1, 
09-oct-1965,0,0.000,0,14.0,0,8.4,5.5, 
10-oct-1965,0,0.000,0,13.7,0,4.1,0.2, 
11-oct-1965,4,0.000,0,15.0,0,0.9,-1.6, 
12-oct-1965,0,0.000,0,12.9,0,0.5,-2.0, 
13-oct-1965,0,0.800,0,15.0,2,0.5, , 
14-oct-1965,0,5.800,0,11.5,0,8.5,6.0, 
15-oct-1965,0,0.000,0,13.1,0,4.8,1.8, 
16-oct-1965,4,0.000,0,13.1,0,7.8,5.8, 
17-oct-1965,0,2.300,0,13.7,0,7.2,6.9, 
18-oct-1965,4,0.000,0,13.0,0,7.5,4.9, 
19-oct-1965,0,0.000,0,14.2,0,6.0,1.0, 
20-oct-1965,0,0.100,0,12.4,0,3.2,-2.0, 
21-oct-1965,0,0.000,0,15.5,0,7.7,7.7, 
22-oct-1965,0,0.000,0,16.3,0,11.8,10.2, 
23-oct-1965,0,0.000,0,13.7,0,11.3,9.0, 
24-oct-1965,0,0.000,0,11.9,1,-0.3,-4.4, 
25-oct-1965,0,0.000,0,14.0,2,1.2, , 
26-oct-1965,0,0.800,0,16.5,0,9.0,4.0, 
27-oct-1965,0,1.800,0,14.6,0,11.9,10.7, 
28-oct-1965,0,1.900,0,13.9,0,8.7,6.1, 
29-oct-1965,0,7.100,0,12.4,0,5.5,2.5, 
30-oct-1965,0,7.700,0,10.5,0,7.3,6.8, 
31-oct-1965,0,16.000,0,15.0,0,5.7,2.9, 
01-nov-1965,0,1.200,2,10.0,0,4.5,4.3, 
02-nov-1965,0,1.200,0,9.0,0,4.0,1.7, 
03-nov-1965,0,0.400,0,9.0,0,0.8,-4.9, 
04-nov-1965,0,0.000,0,9.6,1,-0.1,-4.2, 
05-nov-1965,0,0.000,0,9.5,0,2.0,-1.6, 
06-nov-1965,0,0.500,0,9.9,0,4.8,1.7, 
07-nov-1965,0,1.500,0,10.1,0,5.5,4.0, 
08-nov-1965,0,5.800,0,12.0,0,6.7,2.2, 
09-nov-1965,0,1.600,0,10.9,0,8.5,8.3, 
10-nov-1965,4,0.000,0,10.4,1,-1.4,-3.6, 
11-nov-1965,0,0.900,0,10.2,1,-0.2,0.1, 
12-nov-1965,4,0.000,0,9.8,0,2.7,-0.5, 
13-nov-1965,0,1.900,0,6.5,1,-1.5,-5.2, 
14-nov-1965,4,0.000,0,6.0,0,3.3,2.3, 
15-nov-1965,0,5.900,0,4.0,1,-2.5,-7.4, 
16-nov-1965,0,25.200,0,4.8,1,-0.5,-2.0, 
17-nov-1965,0,34.600,0,8.3,0,0.0,0.0, 
18-nov-1965,0,11.100,2,7.5,0,2.3,1.5, 
19-nov-1965,0,0.100,0,5.7,0,3.6,3.1, 
20-nov-1965,0,0.400,0,6.8,0,1.6,-0.6, 
21-nov-1965,0,0.000,0,4.3,1,-0.4,-2.2, 
22-nov-1965,0,0.400,0,6.0,1,-2.4,-8.0, 
23-nov-1965,0,4.800,0,6.9,1,-1.5,-3.0, 
24-nov-1965,0,31.200,0,4.4,1,-1.2,-4.7, 
25-nov-1965,0,1.300,0,3.2,1,-1.2,-1.2, 
26-nov-1965,0,9.000,0,5.4,1,-1.8,-4.8, 
27-nov-1965,0,5.500,0,4.3,0,0.3,-0.9, 
28-nov-1965,0,0.400,0,2.6,1,-1.5,-5.1, 
29-nov-1965,0,0.700,0,2.5,1,-0.8,-3.3, 
30-nov-1965,0,1.300,0,3.9,1,-0.5,-2.0, 
01-dec-1965,0,12.000,0,9.2,1,-2.0,-5.4, 
02-dec-1965,0,8.800,0,6.7,1,-0.6,-1.5, 
03-dec-1965,0,0.600,0,8.5,0,3.2,1.8, 
04-dec-1965,0,6.900,0,6.0,0,1.8,-1.5, 
05-dec-1965,0,3.800,0,5.7,0,1.9,-0.1, 
06-dec-1965,0,5.100,0,5.6,0,0.7,-0.6, 
07-dec-1965,0,3.100,0,8.0,0,0.5,-1.0, 
08-dec-1965,0,10.700,0,11.1,0,0.0,-1.9, 
09-dec-1965,0,2.800,2,10.5,0,6.7,6.2, 
10-dec-1965,0,0.700,0,7.3,0,3.2,1.4, 
11-dec-1965,0,4.700,0,9.2,0,1.4,-0.4, 
12-dec-1965,0,11.600,2,9.5,0,1.3, , 
13-dec-1965,0,2.000,0,9.3,0,5.0,2.7, 
14-dec-1965,0,2.800,0,11.2,0,2.1,0.4, 
15-dec-1965,0,0.300,0,9.7,0,7.0,6.4, 
16-dec-1965,0,8.300,2,12.5,0,2.7,1.0, 
17-dec-1965,0,8.900,2,13.0,0,2.5,1.5, 
18-dec-1965,4,0.000,0,6.7,0,4.2,2.9, 
19-dec-1965,0,0.000,0,7.8,0,2.5,-0.5, 
20-dec-1965,4,0.000,0,6.9,1,-0.9,-4.4, 
21-dec-1965,0,4.900,0,8.6,1,-0.1,-2.0, 
22-dec-1965,0,9.700,0,8.8,0,2.0,0.8, 
23-dec-1965,0,0.100,0,8.2,0,5.3,0.8, 
24-dec-1965,0,0.000,0,5.7,0,2.5,0.7, 
25-dec-1965,0,0.000,0,5.0,0,0.5,-1.1, 
26-dec-1965,0,0.000,0,2.5,1,-4.9,-9.0, 
27-dec-1965,0,0.100,0,2.2,1,-5.5,-10.4, 
28-dec-1965,0,7.800,0,8.3,1,-4.9,-4.7, 
29-dec-1965,0,2.800,0,9.7,1,-4.9,-4.2, 
30-dec-1965,0,3.300,0,7.7,0,2.3,0.5, 
31-dec-1965,0,4.000,0,9.8,0,3.1,1.9, 
01-jan-1966,0,0.600,0,8.8,0,2.7,1.0, 
02-jan-1966,0,3.500,0,7.2,0,3.7,2.1, 
03-jan-1966,0,2.200,0,6.4,1,-0.8,-3.9, 
04-jan-1966,0,4.900,0,10.8,1,-0.5,-2.5, 
05-jan-1966,0,2.700,0,11.0,0,5.0,2.5, 
06-jan-1966,4,0.000,0,11.2,0,5.2,3.5, 
07-jan-1966,0,0.000,0,11.1,0,8.5,7.1, 
08-jan-1966,0,4.100,0,9.5,0,8.7,8.2, 
09-jan-1966,0,3.400,0,8.2,0,7.2,6.1, 
10-jan-1966,0,5.200,2,5.5,0,4.7,4.1, 
11-jan-1966,0,0.000,0,3.3,1,-2.0,-3.0, 
12-jan-1966,4,0.000,0,3.7,1,-0.5,-1.9, 
13-jan-1966,0,0.000,0,2.7,0,1.7,1.1, 
14-jan-1966,0,0.100,0,3.2,1,-1.8,-4.7, 
15-jan-1966,0,0.000,0,0.9,1,-5.1,-9.8, 
16-jan-1966,4,0.000,0,0.7,1,-5.5,-7.6, 
17-jan-1966,0,0.000,0,1.2,1,-4.6,-6.5, 
18-jan-1966,0,0.000,0,1.5,1,-1.6,-1.2, 
19-jan-1966,0,0.000,0,0.6,1,-1.2,-3.5, 
20-jan-1966,0,0.000,0,2.5,1,-2.5,-4.5, 
21-jan-1966,0,0.000,0,2.4,1,-2.3,-3.6, 
22-jan-1966,4,0.000,0,2.7,1,-1.1,-1.9, 
23-jan-1966,4,0.000,0,3.7,0,0.5,-0.4, 
24-jan-1966,0,5.900,0,6.5,0,0.4,1.2, 
25-jan-1966,0,2.400,0,9.5,0,1.5,0.6, 
26-jan-1966,0,4.300,0,9.3,0,5.6,5.4, 
27-jan-1966,0,10.800,0,11.0,0,6.1,4.3, 
28-jan-1966,0,3.800,0,12.2,0,6.0,5.5, 
29-jan-1966,0,7.200,0,10.2,0,9.5,9.1, 
30-jan-1966,4,0.000,0,9.0,0,5.3,3.6, 
31-jan-1966,0,0.700,0,9.0,1,-1.3,-5.4, 
01-feb-1966,0,7.500,0,10.3,0,0.0,-0.5, 
02-feb-1966,0,0.900,0,11.2,0,6.0,5.3, 
03-feb-1966,0,11.100,0,12.2,0,5.2,3.5, 
04-feb-1966,0,8.000,0,11.7,0,7.8,7.3, 
05-feb-1966,0,0.500,0,10.9,0,6.5,4.3, 
06-feb-1966,0,2.700,0,10.9,0,5.6,4.1, 
07-feb-1966,0,7.400,0,8.6,0,4.3,3.0, 
08-feb-1966,0,9.300,0,7.0,0,5.6,2.8, 
09-feb-1966,4,0.000,0,6.4,0,4.5,4.0, 
10-feb-1966,0,0.000,0,3.8,0,2.2,0.7, 
11-feb-1966,0,6.600,0,5.2,0,1.5,0.2, 
12-feb-1966,0,1.200,0,7.3,0,0.7,0.4, 
13-feb-1966,0,0.100,0,4.1,0,1.6,-0.4, 
14-feb-1966,0,16.400,0,2.7,0,1.3,0.9, 
15-feb-1966,0,8.000,0,5.0,0,0.4,0.3, 
16-feb-1966,0,0.800,0,5.7,0,1.6,1.5, 
17-feb-1966,0,2.700,0,5.5,0,1.4,0.0, 
18-feb-1966,0,7.900,0,7.0,0,1.2,0.8, 
19-feb-1966,0,6.600,0,10.8,0,3.2,2.9, 
20-feb-1966,0,1.500,0,11.7,0,6.0,5.6, 
21-feb-1966,0,0.400,0,9.5,0,3.2,0.7, 
22-feb-1966,0,2.200,0,6.7,0,4.4,2.2, 
23-feb-1966,0,7.300,0,9.5,0,1.5,-0.5, 
24-feb-1966,0,5.100,0,11.2,0,2.0,0.7, 
25-feb-1966,0,1.600,0,11.7,0,2.7,2.8, 
26-feb-1966,0,5.600,0,10.7,0,6.2,4.5, 
27-feb-1966,0,0.600,0,10.4,0,5.4,4.0, 
28-feb-1966,0,8.000,0,10.0,0,6.2,4.4, 
01-mar-1966,0,8.700,0,11.3,0,4.0,1.0, 
02-mar-1966,0,1.300,0,12.7,0,7.8,6.2, 
03-mar-1966,0,1.100,0,10.7,0,4.4,2.6, 
04-mar-1966,0,0.000,0,10.4,0,2.5,-1.2, 
05-mar-1966,0,0.000,0,11.5,0,5.9,5.5, 
06-mar-1966,4,0.000,0,12.3,0,7.7,6.8, 
07-mar-1966,0,3.100,0,11.0,0,8.3,6.9, 
08-mar-1966,4,0.000,0,12.3,0,1.8,0.0, 
09-mar-1966,0,0.600,0,10.4,0,2.2,0.1, 
10-mar-1966,0,2.700,0,11.4,0,4.4,4.4, 
11-mar-1966,0,5.400,0,7.8,0,3.3,1.1, 
12-mar-1966,0,0.400,0,10.2,0,2.2,-0.7, 
13-mar-1966,0,0.000,0,12.3,0,6.6,6.1, 
14-mar-1966,0,0.100,0,11.3,0,2.2,-2.0, 
15-mar-1966,4,0.000,0,10.0,0,6.5,4.7, 
16-mar-1966,0,0.100,0,11.8,0,6.5,5.5, 
17-mar-1966,0,1.000,0,12.0,0,6.5,4.9, 
18-mar-1966,0,0.000,0,12.4,1,-1.0,-5.0, 
19-mar-1966,0,0.000,0,12.3,0,1.1,-2.4, 
20-mar-1966,0,0.200,0,10.9,0,4.1,-1.5, 
21-mar-1966,0,0.200,0,10.8,0,7.1,6.0, 
22-mar-1966,0,0.500,0,10.2,0,3.8,1.5, 
23-mar-1966,0,1.800,0,10.2,0,5.5,3.1, 
24-mar-1966,0,1.000,0,6.0,0,0.7,0.2, 
25-mar-1966,0,4.400,0,8.5,1,-2.2,-4.0, 
26-mar-1966,0,4.500,0,10.4,0,2.0,1.8, 
27-mar-1966,0,5.600,0,8.8,0,2.7,2.5, 
28-mar-1966,0,1.900,0,10.0,0,1.6,-0.2, 
29-mar-1966,4,0.000,0,9.8,0,0.0,-4.2, 
30-mar-1966,0,0.100,0,10.5,0,3.0,2.8, 
31-mar-1966,0,4.400,0,11.7,0,4.0,3.5, 
01-apr-1966,0,13.500,0,2.9,0,1.7,1.1, 
02-apr-1966,0,0.100,0,8.7,1,-2.7,-7.5, 
03-apr-1966,0,0.000,0,8.1,1,-2.8,-7.6, 
04-apr-1966,0,3.200,0,6.5,0,2.5,1.7, 
05-apr-1966,0,0.500,0,9.7,0,2.8,3.7, 
06-apr-1966,0,0.900,0,13.0,0,3.9, , 
07-apr-1966,0,0.100,0,11.0,0,7.2,6.7, 
08-apr-1966,0,15.000,0,10.6,0,7.1,6.5, 
09-apr-1966,0,2.300,0,11.7,0,7.8,7.8, 
10-apr-1966,0,1.200,0,13.8,0,5.9,5.0, 
11-apr-1966,0,0.100,0,8.0,0,6.6,4.5, 
12-apr-1966,4,0.000,0,9.4,0,4.5,3.9, 
13-apr-1966,0,0.000,0,5.7,0,3.0,3.0, 
14-apr-1966,0,2.200,0,4.0,1,-1.6, , 
15-apr-1966,0,23.700,0,3.7,0,0.9,0.2, 
16-apr-1966,0,0.600,0,5.0,0,0.6,-0.2, 
17-apr-1966,0,0.000,0,6.3,0,3.1,2.8, 
18-apr-1966,0,3.800,0,5.0,0,3.4,3.0, 
19-apr-1966,0,5.700,0,7.8,0,3.5,3.5, 
20-apr-1966,4,0.000,0,11.2,1,-1.0,-1.5, 
21-apr-1966,0,15.900,0,12.3,0,1.3,-1.5, 
22-apr-1966,0,11.300,0,14.7,0,6.2,6.1, 
23-apr-1966,0,8.800,0,10.7,0,6.7,5.3, 
24-apr-1966,0,0.400,0,12.5,0,5.3,4.7, 
25-apr-1966,0,0.000,0,12.0,0,5.0,3.4, 
26-apr-1966,0,3.000,0,12.0,0,9.0,4.7, 
27-apr-1966,0,0.800,0,12.8,0,8.4,4.6, 
28-apr-1966,0,0.000,0,16.0,0,4.5,3.6, 
29-apr-1966,0,0.000,0,14.1,0,8.3,4.5, 
30-apr-1966,0,0.000,0,18.8,0,5.1,2.5, 
01-may-1966,0,0.000,0,19.3,0,5.5,3.5, 
02-may-1966,0,1.400,0,16.0,0,5.6,2.5, 
03-may-1966,0,5.600,0,15.3,0,7.5,3.8, 
04-may-1966,0,5.300,0,12.5,0,6.8,3.4, 
05-may-1966,0,7.300,0,12.0,0,4.5,4.2, 
06-may-1966,0,0.300,0,13.0,0,6.5,5.6, 
07-may-1966,0,6.000,0,11.2,0,3.1,1.5, 
08-may-1966,4,0.000,0,13.9,0,6.2,5.0, 
09-may-1966,4,0.000,0,12.5,0,4.5,1.7, 
10-may-1966,0,4.900,0,14.5,0,4.5,3.5, 
11-may-1966,0,1.800,0,12.1,0,6.5,5.0, 
12-may-1966,0,0.200,0,14.6,0,1.3,-1.5, 
13-may-1966,0,2.800,0,14.6,0,5.7,4.0, 
14-may-1966,0,0.100,0,14.8,0,7.9,6.6, 
15-may-1966,0,0.000,0,15.8,0,3.3,1.7, 
16-may-1966,0,15.500,0,15.3,0,5.7,2.4, 
17-may-1966,0,0.200,0,14.1,0,8.3,4.6, 
18-may-1966,0,3.900,0,14.0,0,4.7,2.7, 
19-may-1966,0,3.000,0,12.8,0,7.1,5.9, 
20-may-1966,0,3.500,0,13.8,0,5.2,3.2, 
21-may-1966,0,3.500,0,15.0,0,8.8,8.1, 
22-may-1966,0,3.100,0,12.3,0,7.9,6.9, 
23-may-1966,0,7.500,0,14.5,0,6.8,5.0, 
24-may-1966,0,2.200,0,14.2,0,8.3,4.7, 
25-may-1966,0,0.700,0,15.5,0,9.6,8.8, 
26-may-1966,0,0.000,0,14.2,0,9.2,8.4, 
27-may-1966,0,0.000,0,17.5,0,9.2,8.6, 
28-may-1966,0,0.000,0,17.6,0,6.8,5.0, 
29-may-1966,0,0.000,0,19.2,0,5.1,1.3, 
30-may-1966,0,0.000,0,21.0,0,3.3,0.6, 
31-may-1966,0,0.000,0,23.3,0,4.5,4.6, 
01-jun-1966,0,0.000,0,18.6,0,7.5,4.2, 
02-jun-1966,0,0.000,0,19.7,0,7.7,4.7, 
03-jun-1966,0,0.600,0,21.2,0,5.4,1.9, 
04-jun-1966,0,3.200,0,14.8,0,12.4,11.4, 
05-jun-1966,0,0.500,0,15.3,0,10.8,9.9, 
06-jun-1966,0,8.200,0,15.7,0,9.1,7.8, 
07-jun-1966,0,0.300,0,16.8,0,8.7,5.6, 
08-jun-1966,0,3.100,0,15.8,0,11.8,11.1, 
09-jun-1966,0,15.000,0,14.0,0,12.0,11.0, 
10-jun-1966,0,1.400,0,16.8,0,11.1,10.6, 
11-jun-1966,0,2.200,0,21.2,0,11.8,11.4, 
12-jun-1966,0,2.900,0,20.4,0,14.5,14.1, 
13-jun-1966,0,9.500,0,20.4,0,13.0,12.1, 
14-jun-1966,0,2.300,0,18.7,0,12.7,12.1, 
15-jun-1966,0,1.200,0,17.9,0,12.9,11.2, 
16-jun-1966,0,1.700,0,19.1,0,12.2,11.0, 
17-jun-1966,0,4.300,0,17.9,0,11.3,10.0, 
18-jun-1966,0,2.000,0,18.5,0,10.9,9.9, 
19-jun-1966,0,4.200,0,15.7,0,9.4,8.2, 
20-jun-1966,4,0.000,0,18.2,0,11.8,10.6, 
21-jun-1966,0,1.300,0,19.2,0,8.5,5.0, 
22-jun-1966,0,5.900,0,18.3,0,11.5,10.6, 
23-jun-1966,0,1.700,0,17.7,0,7.9,6.1, 
24-jun-1966,0,1.100,0,18.9,0,10.2,8.6, 
25-jun-1966,0,0.200,0,19.0,0,11.7,9.4, 
26-jun-1966,0,14.900,0,16.1,0,11.6,10.0, 
27-jun-1966,0,0.100,0,17.7,0,12.1,11.8, 
28-jun-1966,0,0.000,0,18.0,0,9.8,8.1, 
29-jun-1966,0,0.100,0,19.0,0,5.6,3.0, 
30-jun-1966,0,0.000,0,19.6,0,13.4,12.4, 
01-jul-1966,0,0.000,0,18.6,0,10.2,8.6, 
02-jul-1966,0,0.600,0,18.3,0,7.6,5.1, 
03-jul-1966,0,0.000,0,18.0,0,6.5,3.6, 
04-jul-1966,0,0.200,0,19.3,0,8.2,5.9, 
05-jul-1966,4,0.000,0,18.5,0,11.9,9.9, 
06-jul-1966,0,0.000,0,17.7,0,11.4,10.7, 
07-jul-1966,0,0.100,0,20.3,0,12.1,11.0, 
08-jul-1966,0,0.000,0,17.7,0,12.9,10.3, 
09-jul-1966,0,11.700,0,18.1,0,6.5,4.6, 
10-jul-1966,0,7.700,0,18.0,0,11.2,10.8, 
11-jul-1966,4,0.000,0,18.4,0,7.5,3.9, 
12-jul-1966,0,0.100,0,18.4,0,13.8,13.2, 
13-jul-1966,0,0.200,0,18.2,0,12.0,11.1, 
14-jul-1966,0,3.900,0,17.3,0,9.8,8.4, 
15-jul-1966,0,1.900,0,17.7,0,12.0,11.1, 
16-jul-1966,4,0.000,0,18.7,0,11.3,10.1, 
17-jul-1966,0,0.100,0,18.8,0,6.6,3.2, 
18-jul-1966,0,0.000,0,20.8,0,6.4,3.2, 
19-jul-1966,0,0.000,0,22.0,0,9.3,6.9, 
20-jul-1966,0,0.000,0,22.8,0,9.6,7.4, 
21-jul-1966,0,0.000,0,25.4,0,10.5,7.7, 
22-jul-1966,0,3.800,0,20.7,0,9.5,6.0, 
23-jul-1966,0,0.800,0,20.4,0,13.4,12.4, 
24-jul-1966,0,0.100,0,20.5,0,10.5,9.0, 
25-jul-1966,0,1.500,0,16.1,0,8.7,7.1, 
26-jul-1966,0,0.000,0,16.4,0,11.6,10.7, 
27-jul-1966,0,1.100,0,17.6,0,4.6,0.6, 
28-jul-1966,0,0.900,0,16.4,0,11.7,10.6, 
29-jul-1966,0,1.200,0,17.7,0,11.0,9.8, 
30-jul-1966,0,2.200,0,17.9,0,10.0,8.6, 
31-jul-1966,0,0.600,0,14.1,0,8.5,6.6, 
01-aug-1966,4,0.000,0,17.6,0,6.4,3.7, 
02-aug-1966,4,0.000,0,18.8,0,4.0,1.0, 
03-aug-1966,0,0.000,0,19.3,0,10.0,8.8, 
04-aug-1966,0,0.400,0,18.0,0,8.2,5.9, 
05-aug-1966,0,0.900,0,17.3,0,7.7,5.7, 
06-aug-1966,0,0.000,0,17.9,0,9.4,7.4, 
07-aug-1966,0,5.800,0,18.0,0,8.1,5.2, 
08-aug-1966,0,7.100,0,16.5,0,8.6,6.4, 
09-aug-1966,0,6.300,0,19.4,0,9.3,8.0, 
10-aug-1966,0,0.000,0,18.2,0,11.4,10.4, 
11-aug-1966,0,4.500,0,18.8,0,9.4,6.7, 
12-aug-1966,0,0.900,0,20.4,0,13.2,12.1, 
13-aug-1966,0,2.100,0,17.4,0,12.4,11.5, 
14-aug-1966,0,5.800,0,17.2,0,10.5,7.2, 
15-aug-1966,0,0.000,0,19.0,0,4.0,0.3, 
16-aug-1966,0,3.400,0,19.2,0,9.0,7.2, 
17-aug-1966,0,3.300,0,17.4,0,14.9,14.1, 
18-aug-1966,4,0.000,0,18.8,0,13.0,12.1, 
19-aug-1966,0,2.400,0,16.8,0,14.2,13.5, 
20-aug-1966,0,9.100,0,15.5,0,11.3,10.6, 
21-aug-1966,0,0.000,0,16.8,0,10.4,10.0, 
22-aug-1966,0,0.200,0,17.7,0,10.1,9.0, 
23-aug-1966,0,0.000,0,18.8,0,8.5,6.3, 
24-aug-1966,0,0.000,0,20.2,0,7.0,4.7, 
25-aug-1966,0,0.000,0,19.8,0,7.5,4.1, 
26-aug-1966,0,0.000,0,17.6,0,9.2,5.7, 